Weather History for KSGS - December, 2012

Change the Weather History Date:

Saturday, December 8, 2012

  Actual Average (KMSP) Record (KMSP)
Temperature  
Mean Temperature 31 °F 22 °F  
Max Temperature 34 °F 29 °F 50 °F (1990)
Min Temperature 28 °F 15 °F -22 °F (1876)
Degree Days  
Heating Degree Days 34 43  
Month to date heating degree days 332  
Since 1 July heating degree days 1951  
Cooling Degree Days 0 0  
Month to date cooling degree days 0  
Year to date cooling degree days 753  
Moisture  
Dew Point 25 °F    
Average Humidity 81    
Maximum Humidity 90    
Minimum Humidity 71    
Precipitation  
Precipitation 0.00 in 0.04 in 0.44 in (1963)
Month to date precipitation 0.34  
Year to date precipitation 29.79  
Snow  
Snow 0.00 in 0.30 in 7.10 in (1995)
Month to date snowfall 3.2  
Since 1 July snowfall 13.1  
Snow Depth -    
Sea Level Pressure  
Sea Level Pressure 30.03 in    
Wind  
Wind Speed 3 mph (SE)    
Max Wind Speed 7 mph    
Max Gust Speed -    
Visibility 10 miles    
Events      
T = Trace of Precipitation, MM = Missing Value Source: NWS Daily Summary

Daily Weather History Graph

Daily Weather History Graph

Search for Another Location

Airport or City:

Trip Planner

Search our weather history database for the weather conditions in past years. The results will help you decide how hot, cold, wet, or windy it might be!

Date:

Astronomy

Dec. 08, 2012 Rise Set
Actual Time 7:37 AM CST 4:30 PM CST
Civil Twilight 7:04 AM CST 5:04 PM CST
Nautical Twilight 6:27 AM CST 5:41 PM CST
Astronomical Twilight 5:51 AM CST 6:16 PM CST
Moon 1:51 AM CST (12/8) 1:11 PM CST (12/8)
Length of Visible Light 10h 00m
Length of Day
8h 53m
Waning Crescent, 28% of the Moon is Illuminated
Dec 8
Waning Crescent
Dec 13
New
Dec 19
First Quarter
Dec 28
Full
Jan 4
Last Quarter

Hourly Weather History & Observations

Time (CST) Temp. Windchill Dew Point Humidity Pressure Visibility Wind Dir Wind Speed Gust Speed Precip Events Conditions
12:12 AM 28.0 °F 24.2 °F 25.5 °F 90% 30.04 in 10.0 mi NNE 3.5 mph - N/A   Scattered Clouds
12:32 AM 28.4 °F 24.6 °F 25.7 °F 90% 30.04 in 10.0 mi NNE 3.5 mph - N/A   Overcast
12:52 AM 28.4 °F 24.6 °F 25.5 °F 89% 30.03 in 10.0 mi NNE 3.5 mph - N/A   Overcast
1:12 AM 28.4 °F 23.3 °F 24.8 °F 86% 30.03 in 10.0 mi NNE 4.6 mph - N/A   Overcast
1:32 AM 28.4 °F 24.6 °F 25.2 °F 88% 30.03 in 10.0 mi NNE 3.5 mph - N/A   Overcast
1:52 AM 28.4 °F - 25.2 °F 88% 30.03 in 10.0 mi Calm Calm - N/A   Overcast
2:12 AM 28.2 °F 24.4 °F 24.8 °F 87% 30.03 in 10.0 mi NNE 3.5 mph - N/A   Overcast
2:52 AM 28.2 °F - 24.8 °F 87% 30.03 in 10.0 mi Calm Calm - N/A   Overcast
3:12 AM 28.4 °F - 24.8 °F 86% 30.03 in 10.0 mi Calm Calm - N/A   Overcast
3:32 AM 28.2 °F - 24.6 °F 86% 30.03 in 10.0 mi Calm Calm - N/A   Overcast
3:52 AM 28.4 °F - 24.8 °F 86% 30.03 in 10.0 mi Calm Calm - N/A   Overcast
4:12 AM 28.4 °F 24.6 °F 24.6 °F 86% 30.04 in 10.0 mi NNE 3.5 mph - N/A   Overcast
4:32 AM 28.4 °F - 24.6 °F 86% 30.04 in 10.0 mi Calm Calm - N/A   Overcast
5:12 AM 28.4 °F - 24.8 °F 86% 30.04 in 10.0 mi Calm Calm - N/A   Overcast
5:32 AM 28.4 °F - 24.8 °F 86% 30.04 in 10.0 mi Calm Calm - N/A   Overcast
5:52 AM 28.4 °F - 24.8 °F 86% 30.04 in 10.0 mi Calm Calm - N/A   Overcast
6:12 AM 28.4 °F - 25.2 °F 88% 30.05 in 10.0 mi Calm Calm - N/A   Overcast
6:32 AM 28.2 °F - 25.2 °F 88% 30.05 in 10.0 mi Calm Calm - N/A   Overcast
6:52 AM 28.4 °F - 25.2 °F 88% 30.05 in 7.0 mi Calm Calm - N/A   Overcast
7:12 AM 28.2 °F - 25.2 °F 88% 30.05 in 10.0 mi Calm Calm - N/A   Overcast
7:32 AM 28.2 °F 24.4 °F 25.2 °F 88% 30.04 in 7.0 mi East 3.5 mph - N/A   Overcast
7:52 AM 28.0 °F 24.2 °F 25.2 °F 89% 30.04 in 7.0 mi East 3.5 mph - N/A   Overcast
8:12 AM 28.0 °F - 25.2 °F 89% 30.05 in 7.0 mi Calm Calm - N/A   Overcast
8:32 AM 28.2 °F - 24.8 °F 87% 30.05 in 7.0 mi Calm Calm - N/A   Overcast
8:52 AM 28.2 °F 24.4 °F 24.8 °F 87% 30.05 in 7.0 mi ESE 3.5 mph - N/A   Overcast
9:12 AM 28.8 °F 23.7 °F 24.4 °F 84% 30.05 in 10.0 mi SE 4.6 mph - N/A   Mostly Cloudy
9:32 AM 29.3 °F 25.6 °F 24.1 °F 81% 30.05 in 10.0 mi SE 3.5 mph - N/A   Scattered Clouds
9:52 AM 29.5 °F 25.9 °F 24.1 °F 80% 30.06 in 10.0 mi SE 3.5 mph - N/A   Clear
10:12 AM 30.2 °F - 24.1 °F 78% 30.07 in 10.0 mi Calm Calm - N/A   Clear
10:32 AM 30.4 °F 26.9 °F 24.4 °F 79% 30.07 in 10.0 mi South 3.5 mph - N/A   Clear
10:52 AM 30.9 °F 25.2 °F 24.6 °F 77% 30.06 in 10.0 mi SSE 5.8 mph - N/A   Clear
11:12 AM 31.1 °F 26.4 °F 24.8 °F 77% 30.06 in 10.0 mi SSE 4.6 mph - N/A   Clear
11:32 AM 31.6 °F 26.0 °F 25.5 °F 78% 30.05 in 10.0 mi South 5.8 mph - N/A   Clear
11:52 AM 32.0 °F 27.5 °F 25.9 °F 78% 30.04 in 10.0 mi SSE 4.6 mph - N/A   Clear
12:12 PM 32.2 °F 28.9 °F 26.4 °F 79% 30.03 in 10.0 mi SSE 3.5 mph - N/A   Clear
12:32 PM 32.5 °F 28.1 °F 26.4 °F 78% 30.03 in 10.0 mi South 4.6 mph - N/A   Clear
12:52 PM 33.8 °F 28.6 °F 27.7 °F 78% 30.03 in 10.0 mi SSE 5.8 mph - N/A   Scattered Clouds
1:12 PM 33.3 °F 27.1 °F 26.6 °F 77% 30.03 in 10.0 mi South 6.9 mph - N/A   Scattered Clouds
1:32 PM 33.6 °F 28.4 °F 27.1 °F 77% 30.02 in 10.0 mi South 5.8 mph - N/A   Scattered Clouds
1:52 PM 33.8 °F 30.8 °F 27.0 °F 76% 30.02 in 10.0 mi SE 3.5 mph - N/A   Clear
2:12 PM 34.0 °F 29.8 °F 26.1 °F 73% 30.02 in 10.0 mi South 4.6 mph - N/A   Clear
2:32 PM 33.8 °F 29.6 °F 26.4 °F 74% 30.02 in 10.0 mi South 4.6 mph - N/A   Clear
2:52 PM 33.6 °F 30.6 °F 26.4 °F 75% 30.02 in 10.0 mi South 3.5 mph - N/A   Clear
3:12 PM 33.3 °F - 26.2 °F 75% 30.02 in 10.0 mi Calm Calm - N/A   Clear
3:32 PM 33.3 °F - 26.2 °F 75% 30.02 in 10.0 mi Calm Calm - N/A   Clear
3:52 PM 33.3 °F 30.2 °F 26.6 °F 77% 30.01 in 10.0 mi East 3.5 mph - N/A   Clear
4:12 PM 33.3 °F 30.2 °F 26.4 °F 76% 30.01 in 10.0 mi East 3.5 mph - N/A   Clear
4:32 PM 33.1 °F - 26.6 °F 77% 30.01 in 10.0 mi Calm Calm - N/A   Clear
5:12 PM 32.4 °F 29.1 °F 25.9 °F 77% 30.01 in 10.0 mi SE 3.5 mph - N/A   Clear
5:32 PM 32.4 °F 27.9 °F 25.7 °F 76% 30.01 in 10.0 mi SE 4.6 mph - N/A   Clear
5:52 PM 32.7 °F 26.4 °F 25.7 °F 75% 30.01 in 10.0 mi SE 6.9 mph - N/A   Clear
6:12 PM 32.0 °F 28.7 °F 25.5 °F 77% 30.02 in 10.0 mi East 3.5 mph - N/A   Clear
6:32 PM 32.0 °F 27.5 °F 25.7 °F 78% 30.02 in 10.0 mi East 4.6 mph - N/A   Clear
6:52 PM 32.0 °F - 26.1 °F 79% 30.02 in 10.0 mi Calm Calm - N/A   Clear
7:12 PM 32.0 °F 28.7 °F 25.9 °F 78% 30.02 in 10.0 mi ESE 3.5 mph - N/A   Clear
7:32 PM 32.0 °F - 25.9 °F 78% 30.03 in 10.0 mi Calm Calm - N/A   Clear
7:52 PM 31.8 °F - 25.7 °F 78% 30.03 in 10.0 mi Calm Calm - N/A   Clear
8:12 PM 31.8 °F - 25.7 °F 78% 30.02 in 10.0 mi Calm Calm - N/A   Clear
8:32 PM 32.0 °F - 25.7 °F 78% 30.02 in 10.0 mi Calm Calm - N/A   Clear
8:52 PM 31.8 °F - 25.7 °F 78% 30.02 in 10.0 mi Calm Calm - N/A   Clear
9:12 PM 32.0 °F 28.7 °F 25.5 °F 77% 30.01 in 10.0 mi SE 3.5 mph - N/A   Clear
9:32 PM 32.0 °F 27.5 °F 25.3 °F 76% 30.01 in 10.0 mi ESE 4.6 mph - N/A   Clear
9:52 PM 32.0 °F - 25.5 °F 77% 30.00 in 10.0 mi Calm Calm - N/A   Clear
10:12 PM 32.2 °F 27.7 °F 25.2 °F 75% 30.00 in 10.0 mi SE 4.6 mph - N/A   Clear
10:32 PM 32.5 °F 28.1 °F 24.8 °F 73% 30.02 in 10.0 mi SE 4.6 mph - N/A   Scattered Clouds
10:52 PM 32.9 °F 26.7 °F 24.8 °F 72% 30.01 in 10.0 mi SE 6.9 mph - N/A   Overcast
11:12 PM 33.1 °F 26.9 °F 24.8 °F 72% 30.02 in 10.0 mi SE 6.9 mph - N/A   Overcast
11:32 PM 33.3 °F 28.9 °F 24.8 °F 71% 30.02 in 10.0 mi SE 4.6 mph - N/A   Overcast
11:52 PM 33.3 °F 28.9 °F 24.8 °F 71% 30.02 in 10.0 mi SE 4.6 mph - N/A   Overcast